Time,TemperatureF,DewpointF,PressureIn,WindDirection,WindDirectionDegrees,WindSpeedMPH,WindSpeedGustMPH,Humidity,HourlyPrecipIn,Conditions,Clouds,dailyrainin,SoftwareType,DateUTC
2013-03-13 00:00:00,29.5,16.1,30.33,NE,44,0.0,0.0,57,0.00,,SKC,0.00,VWS V13.01,2013-03-13 05:00:00,
2013-03-13 00:10:00,29.3,16.0,30.33,ENE,68,0.0,5.4,57,0.00,,SKC,0.00,VWS V13.01,2013-03-13 05:10:00,
2013-03-13 00:20:00,29.1,15.8,30.33,NE,44,0.0,0.0,57,0.00,,SKC,0.00,VWS V13.01,2013-03-13 05:20:00,
2013-03-13 00:30:00,28.9,16.0,30.33,NE,42,0.0,3.1,58,0.00,,SKC,0.00,VWS V13.01,2013-03-13 05:30:00,
2013-03-13 00:40:00,28.6,15.7,30.33,North,3,0.0,0.0,58,0.00,,SKC,0.00,VWS V13.01,2013-03-13 05:40:00,
2013-03-13 00:50:00,28.4,15.9,30.33,North,3,0.0,0.0,59,0.00,,SKC,0.00,VWS V13.01,2013-03-13 05:50:00,
2013-03-13 01:00:00,28.0,15.6,30.33,North,3,0.0,0.0,59,0.00,,SKC,0.00,VWS V13.01,2013-03-13 06:00:00,
2013-03-13 01:10:00,27.9,15.4,30.33,North,3,0.0,0.0,59,0.00,,SKC,0.00,VWS V13.01,2013-03-13 06:10:00,
2013-03-13 01:20:00,27.7,15.6,30.33,North,3,0.0,0.0,60,0.00,,SKC,0.00,VWS V13.01,2013-03-13 06:20:00,
2013-03-13 01:30:00,27.7,15.6,30.33,North,3,0.0,0.0,60,0.00,,SKC,0.00,VWS V13.01,2013-03-13 06:30:00,
2013-03-13 01:40:00,27.5,15.8,30.33,North,3,0.0,0.0,61,0.00,,SKC,0.00,VWS V13.01,2013-03-13 06:40:00,
2013-03-13 01:50:00,27.3,15.7,30.33,North,4,0.0,0.0,61,0.00,,SKC,0.00,VWS V13.01,2013-03-13 06:50:00,
2013-03-13 02:00:00,27.3,16.0,30.33,North,4,0.0,0.0,62,0.00,,SKC,0.00,VWS V13.01,2013-03-13 07:00:00,
2013-03-13 02:10:00,27.1,16.2,30.33,NNE,15,0.0,0.0,63,0.00,,SKC,0.00,VWS V13.01,2013-03-13 07:10:00,
2013-03-13 02:20:00,27.1,16.6,30.33,ENE,64,0.0,0.0,64,0.00,,SKC,0.00,VWS V13.01,2013-03-13 07:20:00,
2013-03-13 02:40:00,27.1,16.6,30.36,NNE,32,0.0,2.7,64,0.00,,SKC,0.00,VWS V13.01,2013-03-13 07:40:00,
2013-03-13 02:50:00,27.1,16.6,30.36,NE,48,0.0,2.7,64,0.00,,SKC,0.00,VWS V13.01,2013-03-13 07:50:00,
2013-03-13 03:00:00,27.0,16.8,30.36,NE,34,0.0,0.0,65,0.00,,SKC,0.00,VWS V13.01,2013-03-13 08:00:00,
2013-03-13 03:30:00,26.4,17.0,30.33,NNE,17,0.0,5.4,67,0.00,,SKC,0.00,VWS V13.01,2013-03-13 08:30:00,
2013-03-13 03:50:00,26.2,16.8,30.36,NNE,19,0.0,0.0,67,0.00,,SKC,0.00,VWS V13.01,2013-03-13 08:50:00,
2013-03-13 04:00:00,26.1,16.6,30.36,NNE,27,0.0,3.1,67,0.00,,SKC,0.00,VWS V13.01,2013-03-13 09:00:00,
2013-03-13 04:10:00,25.9,16.5,30.36,NNE,27,0.0,0.0,67,0.00,,SKC,0.00,VWS V13.01,2013-03-13 09:10:00,
2013-03-13 04:20:00,25.7,16.3,30.36,NNE,27,0.0,0.0,67,0.00,,SKC,0.00,VWS V13.01,2013-03-13 09:20:00,
2013-03-13 04:30:00,25.3,16.3,30.36,NNE,27,0.0,0.0,68,0.00,,SKC,0.00,VWS V13.01,2013-03-13 09:30:00,
2013-03-13 04:40:00,25.2,16.1,30.36,NNE,27,0.0,0.0,68,0.00,,SKC,0.00,VWS V13.01,2013-03-13 09:40:00,
2013-03-13 04:50:00,25.0,15.9,30.36,NNE,27,0.0,0.0,68,0.00,,SKC,0.00,VWS V13.01,2013-03-13 09:50:00,
2013-03-13 05:00:00,25.0,16.3,30.36,North,11,0.0,0.0,69,0.00,,SKC,0.00,VWS V13.01,2013-03-13 10:00:00,
2013-03-13 05:10:00,25.0,16.3,30.36,NE,34,0.0,0.0,69,0.00,,SKC,0.00,VWS V13.01,2013-03-13 10:10:00,
2013-03-13 05:20:00,25.0,16.3,30.36,NNE,24,0.0,0.0,69,0.00,,SKC,0.00,VWS V13.01,2013-03-13 10:20:00,
2013-03-13 05:30:00,25.0,16.3,30.36,ENE,71,0.0,0.0,69,0.00,,SKC,0.00,VWS V13.01,2013-03-13 10:30:00,
2013-03-13 05:40:00,24.8,16.4,30.39,NNE,26,0.0,0.0,70,0.00,,SKC,0.00,VWS V13.01,2013-03-13 10:40:00,
2013-03-13 05:50:00,24.6,16.2,30.39,NE,35,0.0,0.0,70,0.00,,SKC,0.00,VWS V13.01,2013-03-13 10:50:00,
2013-03-13 06:00:00,24.6,16.2,30.39,NNE,24,0.0,3.1,70,0.00,,SKC,0.00,VWS V13.01,2013-03-13 11:00:00,
2013-03-13 06:10:00,24.6,15.9,30.39,ENE,59,0.0,0.0,69,0.00,,SKC,0.00,VWS V13.01,2013-03-13 11:10:00,
2013-03-13 06:20:00,24.4,15.7,30.39,NNE,31,0.0,4.9,69,0.00,,SKC,0.00,VWS V13.01,2013-03-13 11:20:00,
2013-03-13 06:30:00,24.3,15.6,30.39,NNE,26,0.0,2.7,69,0.00,,SKC,0.00,VWS V13.01,2013-03-13 11:30:00,
2013-03-13 06:40:00,24.1,15.7,30.39,NE,45,0.0,3.1,70,0.00,,SKC,0.00,VWS V13.01,2013-03-13 11:40:00,
2013-03-13 06:50:00,23.9,15.9,30.39,NE,44,0.0,2.7,71,0.00,,SKC,0.00,VWS V13.01,2013-03-13 11:50:00,
2013-03-13 07:00:00,23.9,15.9,30.39,NE,46,0.0,6.3,71,0.00,,SKC,0.00,VWS V13.01,2013-03-13 12:00:00,
2013-03-13 07:10:00,23.7,15.7,30.39,ENE,68,3.1,4.0,71,0.00,,SKC,0.00,VWS V13.01,2013-03-13 12:10:00,
2013-03-13 07:20:00,23.5,15.5,30.39,NE,55,0.0,3.6,71,0.00,,SKC,0.00,VWS V13.01,2013-03-13 12:20:00,
2013-03-13 07:30:00,23.4,15.4,30.39,NE,54,3.1,4.0,71,0.00,,SKC,0.00,VWS V13.01,2013-03-13 12:30:00,
2013-03-13 07:40:00,23.5,15.5,30.39,NE,52,0.0,3.1,71,0.00,,SKC,0.00,VWS V13.01,2013-03-13 12:40:00,
2013-03-13 07:50:00,23.5,15.5,30.39,NE,52,0.0,0.0,71,0.00,,SKC,0.00,VWS V13.01,2013-03-13 12:50:00,
2013-03-13 08:00:00,23.5,15.5,30.39,NE,52,0.0,0.0,71,0.00,,SKC,0.00,VWS V13.01,2013-03-13 13:00:00,
2013-03-13 08:10:00,23.5,15.5,30.39,NE,52,0.0,0.0,71,0.00,,SKC,0.00,VWS V13.01,2013-03-13 13:10:00,
2013-03-13 08:20:00,23.9,15.9,30.39,NE,51,0.0,3.6,71,0.00,,SKC,0.00,VWS V13.01,2013-03-13 13:20:00,
2013-03-13 08:30:00,23.9,15.6,30.42,NE,39,0.0,4.0,70,0.00,,SKC,0.00,VWS V13.01,2013-03-13 13:30:00,
2013-03-13 08:40:00,24.1,15.7,30.42,NE,43,0.0,0.0,70,0.00,,SKC,0.00,VWS V13.01,2013-03-13 13:40:00,
2013-03-13 08:50:00,24.8,16.1,30.42,ENE,73,3.1,3.6,69,0.00,,SKC,0.00,VWS V13.01,2013-03-13 13:50:00,
2013-03-13 09:00:00,25.3,16.3,30.42,NE,42,0.0,4.0,68,0.00,,SKC,0.00,VWS V13.01,2013-03-13 14:00:00,
2013-03-13 09:10:00,25.7,16.3,30.42,NE,40,3.1,4.5,67,0.00,,SKC,0.00,VWS V13.01,2013-03-13 14:10:00,
2013-03-13 09:20:00,25.9,16.5,30.42,NE,37,3.1,4.0,67,0.00,,SKC,0.00,VWS V13.01,2013-03-13 14:20:00,
2013-03-13 09:30:00,26.2,16.1,30.42,SSE,166,0.0,3.1,65,0.00,,SKC,0.00,VWS V13.01,2013-03-13 14:30:00,
2013-03-13 09:40:00,27.0,15.7,30.45,NE,43,0.0,0.0,62,0.00,,SKC,0.00,VWS V13.01,2013-03-13 14:40:00,
2013-03-13 09:50:00,27.1,15.1,30.45,NE,38,0.0,0.0,60,0.00,,SKC,0.00,VWS V13.01,2013-03-13 14:50:00,
2013-03-13 10:00:00,27.1,14.7,30.45,NE,42,0.0,4.0,59,0.00,,SKC,0.00,VWS V13.01,2013-03-13 15:00:00,
2013-03-13 10:10:00,27.7,15.2,30.45,NE,42,0.0,0.0,59,0.00,,SKC,0.00,VWS V13.01,2013-03-13 15:10:00,
2013-03-13 10:20:00,28.2,15.8,30.45,SSW,194,0.0,0.0,59,0.00,,SKC,0.00,VWS V13.01,2013-03-13 15:20:00,
2013-03-13 10:30:00,28.8,15.9,30.45,SSW,203,0.0,4.0,58,0.00,,SKC,0.00,VWS V13.01,2013-03-13 15:30:00,
2013-03-13 10:50:00,29.3,14.7,30.45,ENE,70,0.0,5.4,54,0.00,,SKC,0.00,VWS V13.01,2013-03-13 15:50:00,
2013-03-13 11:00:00,29.5,14.9,30.45,NE,44,0.0,4.0,54,0.00,,SKC,0.00,VWS V13.01,2013-03-13 16:00:00,
2013-03-13 11:10:00,30.0,16.2,30.45,NNE,22,0.0,3.6,56,0.00,,SKC,0.00,VWS V13.01,2013-03-13 16:10:00,
2013-03-13 11:30:00,30.7,16.1,30.47,NNE,30,3.6,5.4,54,0.00,,SKC,0.00,VWS V13.01,2013-03-13 16:30:00,
2013-03-13 11:40:00,31.1,16.4,30.45,NE,41,4.0,4.0,54,0.00,,SKC,0.00,VWS V13.01,2013-03-13 16:40:00,
2013-03-13 11:50:00,31.5,15.4,30.45,NNE,20,0.0,4.9,51,0.00,,SKC,0.00,VWS V13.01,2013-03-13 16:50:00,
2013-03-13 12:00:00,31.8,15.8,30.47,ENE,59,3.6,4.5,51,0.00,,SKC,0.00,VWS V13.01,2013-03-13 17:00:00,
2013-03-13 12:10:00,32.2,16.1,30.45,NNE,14,0.0,3.6,51,0.00,,SKC,0.00,VWS V13.01,2013-03-13 17:10:00,
2013-03-13 12:20:00,33.1,16.9,30.45,NE,54,0.0,0.0,51,0.00,,SKC,0.00,VWS V13.01,2013-03-13 17:20:00,
2013-03-13 12:30:00,33.6,16.5,30.45,NE,43,0.0,0.0,49,0.00,,SKC,0.00,VWS V13.01,2013-03-13 17:30:00,
2013-03-13 12:40:00,34.3,16.7,30.45,ENE,58,0.0,0.0,48,0.00,,SKC,0.00,VWS V13.01,2013-03-13 17:40:00,
2013-03-13 12:50:00,34.9,17.2,30.45,NE,48,0.0,5.4,48,0.00,,SKC,0.00,VWS V13.01,2013-03-13 17:50:00,
2013-03-13 13:00:00,35.2,16.5,30.45,South,174,0.0,4.9,46,0.00,,SKC,0.00,VWS V13.01,2013-03-13 18:00:00,
2013-03-13 13:10:00,36.0,16.7,30.45,NNW,337,0.0,3.6,45,0.00,,SKC,0.00,VWS V13.01,2013-03-13 18:10:00,
2013-03-13 13:20:00,36.1,16.9,30.45,NNE,21,0.0,4.0,45,0.00,,SKC,0.00,VWS V13.01,2013-03-13 18:20:00,
2013-03-13 13:30:00,36.7,17.4,30.45,NE,35,2.7,3.6,45,0.00,,SKC,0.00,VWS V13.01,2013-03-13 18:30:00,
2013-03-13 13:40:00,36.9,17.5,30.45,ENE,77,0.0,5.8,45,0.00,,SKC,0.00,VWS V13.01,2013-03-13 18:40:00,
2013-03-13 13:50:00,37.4,18.0,30.45,NNE,30,0.0,5.4,45,0.00,,SKC,0.00,VWS V13.01,2013-03-13 18:50:00,
2013-03-13 14:00:00,37.4,18.0,30.45,NNE,27,0.0,3.6,45,0.00,,SKC,0.00,VWS V13.01,2013-03-13 19:00:00,
2013-03-13 14:10:00,37.4,16.4,30.45,NE,47,0.0,3.6,42,0.00,,SKC,0.00,VWS V13.01,2013-03-13 19:10:00,
2013-03-13 14:20:00,37.9,16.9,30.45,ENE,63,0.0,0.0,42,0.00,,SKC,0.00,VWS V13.01,2013-03-13 19:20:00,
2013-03-13 14:30:00,38.3,17.2,30.42,NE,39,0.0,0.0,42,0.00,,SKC,0.00,VWS V13.01,2013-03-13 19:30:00,
2013-03-13 14:40:00,39.4,19.3,30.42,NNE,21,0.0,0.0,44,0.00,,SKC,0.00,VWS V13.01,2013-03-13 19:40:00,
2013-03-13 14:50:00,39.4,18.2,30.42,East,80,0.0,2.7,42,0.00,,SKC,0.00,VWS V13.01,2013-03-13 19:50:00,
2013-03-13 15:00:00,39.4,18.2,30.42,East,80,0.0,0.0,42,0.00,,SKC,0.00,VWS V13.01,2013-03-13 20:00:00,
2013-03-13 15:10:00,39.4,18.2,30.39,South,187,3.6,3.6,42,0.00,,SKC,0.00,VWS V13.01,2013-03-13 20:10:00,
2013-03-13 15:20:00,39.4,18.2,30.39,South,190,0.0,3.6,42,0.00,,SKC,0.00,VWS V13.01,2013-03-13 20:20:00,
2013-03-13 15:30:00,39.9,18.7,30.39,NE,44,0.0,0.0,42,0.00,,SKC,0.00,VWS V13.01,2013-03-13 20:30:00,
2013-03-13 15:40:00,39.9,18.7,30.39,NNE,31,0.0,0.0,42,0.00,,SKC,0.00,VWS V13.01,2013-03-13 20:40:00,
2013-03-13 15:50:00,39.9,18.7,30.39,ENE,57,0.0,0.0,42,0.00,,SKC,0.00,VWS V13.01,2013-03-13 20:50:00,
2013-03-13 16:00:00,39.9,18.7,30.39,NNE,30,0.0,0.0,42,0.00,,SKC,0.00,VWS V13.01,2013-03-13 21:00:00,
2013-03-13 16:10:00,40.6,19.4,30.39,NNE,30,0.0,0.0,42,0.00,,SKC,0.00,VWS V13.01,2013-03-13 21:10:00,
2013-03-13 16:20:00,41.0,19.7,30.39,South,190,0.0,0.0,42,0.00,,SKC,0.00,VWS V13.01,2013-03-13 21:20:00,
2013-03-13 16:30:00,41.4,20.0,30.39,SSW,206,3.1,4.9,42,0.00,,SKC,0.00,VWS V13.01,2013-03-13 21:30:00,
2013-03-13 16:40:00,41.5,20.2,30.36,ENE,71,0.0,3.1,42,0.00,,SKC,0.00,VWS V13.01,2013-03-13 21:40:00,
2013-03-13 16:50:00,42.4,21.0,30.36,NE,45,0.0,0.0,42,0.00,,SKC,0.00,VWS V13.01,2013-03-13 21:50:00,
2013-03-13 17:00:00,42.6,21.1,30.36,SSW,196,0.0,0.0,42,0.00,,SKC,0.00,VWS V13.01,2013-03-13 22:00:00,
2013-03-13 17:10:00,43.0,20.9,30.36,SSW,195,0.0,0.0,41,0.00,,SKC,0.00,VWS V13.01,2013-03-13 22:10:00,
2013-03-13 17:20:00,43.3,21.2,30.36,SSW,195,0.0,0.0,41,0.00,,SKC,0.00,VWS V13.01,2013-03-13 22:20:00,
2013-03-13 17:30:00,43.5,21.4,30.36,SSW,195,0.0,0.0,41,0.00,,SKC,0.00,VWS V13.01,2013-03-13 22:30:00,
2013-03-13 17:40:00,44.2,22.0,30.36,SSW,206,0.0,0.0,41,0.00,,SKC,0.00,VWS V13.01,2013-03-13 22:40:00,
2013-03-13 17:50:00,43.5,21.4,30.36,South,178,0.0,2.7,41,0.00,,SKC,0.00,VWS V13.01,2013-03-13 22:50:00,
2013-03-13 18:00:00,43.5,21.4,30.36,ESE,109,0.0,0.0,41,0.00,,SKC,0.00,VWS V13.01,2013-03-13 23:00:00,
2013-03-13 18:10:00,44.4,22.2,30.33,SE,134,0.0,0.0,41,0.00,,SKC,0.00,VWS V13.01,2013-03-13 23:10:00,
2013-03-13 18:20:00,44.4,22.2,30.33,ESE,119,0.0,0.0,41,0.00,,SKC,0.00,VWS V13.01,2013-03-13 23:20:00,
2013-03-13 18:30:00,43.7,21.6,30.36,ENE,60,0.0,0.0,41,0.00,,SKC,0.00,VWS V13.01,2013-03-13 23:30:00,
2013-03-13 18:40:00,43.2,21.1,30.36,ENE,60,0.0,0.0,41,0.00,,SKC,0.00,VWS V13.01,2013-03-13 23:40:00,
2013-03-13 18:50:00,42.4,21.0,30.36,NE,55,0.0,0.0,42,0.00,,SKC,0.00,VWS V13.01,2013-03-13 23:50:00,
2013-03-13 19:00:00,41.9,20.5,30.36,ENE,58,0.0,0.0,42,0.00,,SKC,0.00,VWS V13.01,2013-03-14 00:00:00,
2013-03-13 19:10:00,41.5,20.2,30.36,East,82,0.0,0.0,42,0.00,,SKC,0.00,VWS V13.01,2013-03-14 00:10:00,
2013-03-13 19:20:00,41.2,19.9,30.36,East,83,0.0,0.0,42,0.00,,SKC,0.00,VWS V13.01,2013-03-14 00:20:00,
2013-03-13 19:30:00,40.6,19.4,30.33,East,83,0.0,0.0,42,0.00,,SKC,0.00,VWS V13.01,2013-03-14 00:30:00,
2013-03-13 19:40:00,39.9,18.7,30.33,East,83,0.0,0.0,42,0.00,,SKC,0.00,VWS V13.01,2013-03-14 00:40:00,
2013-03-13 19:50:00,39.2,18.0,30.33,East,83,0.0,0.0,42,0.00,,SKC,0.00,VWS V13.01,2013-03-14 00:50:00,
2013-03-13 20:00:00,38.7,17.6,30.33,East,82,0.0,0.0,42,0.00,,SKC,0.00,VWS V13.01,2013-03-14 01:00:00,
2013-03-13 20:10:00,38.1,17.1,30.33,East,83,0.0,0.0,42,0.00,,SKC,0.00,VWS V13.01,2013-03-14 01:10:00,
2013-03-13 20:20:00,37.9,16.9,30.33,East,83,0.0,0.0,42,0.00,,SKC,0.00,VWS V13.01,2013-03-14 01:20:00,
2013-03-13 20:30:00,37.8,16.8,30.33,East,82,0.0,0.0,42,0.00,,SKC,0.00,VWS V13.01,2013-03-14 01:30:00,
2013-03-13 20:40:00,37.4,16.4,30.33,East,83,0.0,0.0,42,0.00,,SKC,0.00,VWS V13.01,2013-03-14 01:40:00,
2013-03-13 20:50:00,37.0,16.6,30.33,East,83,0.0,0.0,43,0.00,,SKC,0.00,VWS V13.01,2013-03-14 01:50:00,
2013-03-13 21:00:00,36.9,16.5,30.33,East,83,0.0,0.0,43,0.00,,SKC,0.00,VWS V13.01,2013-03-14 02:00:00,
2013-03-13 21:10:00,36.3,17.0,30.33,East,83,0.0,0.0,45,0.00,,SKC,0.00,VWS V13.01,2013-03-14 02:10:00,
2013-03-13 21:20:00,36.1,16.9,30.33,East,83,0.0,0.0,45,0.00,,SKC,0.00,VWS V13.01,2013-03-14 02:20:00,
2013-03-13 21:30:00,35.6,16.4,30.33,East,83,0.0,0.0,45,0.00,,SKC,0.00,VWS V13.01,2013-03-14 02:30:00,
2013-03-13 21:40:00,35.6,16.4,30.33,East,83,0.0,0.0,45,0.00,,SKC,0.00,VWS V13.01,2013-03-14 02:40:00,
2013-03-13 21:50:00,34.9,16.2,30.33,East,83,0.0,0.0,46,0.00,,SKC,0.00,VWS V13.01,2013-03-14 02:50:00,
2013-03-13 22:00:00,35.1,16.4,30.33,East,83,0.0,0.0,46,0.00,,SKC,0.00,VWS V13.01,2013-03-14 03:00:00,
2013-03-13 22:10:00,35.6,16.4,30.33,East,83,0.0,0.0,45,0.00,,SKC,0.00,VWS V13.01,2013-03-14 03:10:00,
2013-03-13 22:20:00,36.0,16.7,30.33,East,83,0.0,0.0,45,0.00,,SKC,0.00,VWS V13.01,2013-03-14 03:20:00,
2013-03-13 22:30:00,36.0,16.7,30.33,East,83,0.0,0.0,45,0.00,,SKC,0.00,VWS V13.01,2013-03-14 03:30:00,
2013-03-13 22:40:00,35.8,16.5,30.33,South,187,0.0,0.0,45,0.00,,SKC,0.00,VWS V13.01,2013-03-14 03:40:00,
2013-03-13 22:50:00,35.6,17.9,30.33,South,187,0.0,0.0,48,0.00,,SKC,0.00,VWS V13.01,2013-03-14 03:50:00,
2013-03-13 23:00:00,35.6,17.9,30.30,SSW,210,0.0,0.0,48,0.00,,SKC,0.00,VWS V13.01,2013-03-14 04:00:00,
2013-03-13 23:10:00,35.4,17.7,30.30,East,92,0.0,0.0,48,0.00,,SKC,0.00,VWS V13.01,2013-03-14 04:10:00,
2013-03-13 23:20:00,35.2,18.9,30.30,East,93,0.0,0.0,51,0.00,,SKC,0.00,VWS V13.01,2013-03-14 04:20:00,
2013-03-13 23:30:00,35.1,18.8,30.30,East,93,0.0,0.0,51,0.00,,SKC,0.00,VWS V13.01,2013-03-14 04:30:00,
2013-03-13 23:40:00,35.1,18.8,30.30,SE,124,0.0,0.0,51,0.00,,SKC,0.00,VWS V13.01,2013-03-14 04:40:00,
2013-03-13 23:50:00,34.9,19.5,30.30,SSW,200,0.0,0.0,53,0.00,,SKC,0.00,VWS V13.01,2013-03-14 04:50:00,